User: anonymous
Location: NJAA Observatory
(40.6819°N, 74.8979°W)
Time: 17:03:16
(UTC-04:00)
Language:

Cosmos 1461 - Orbit

View from above orbital plane
View from above orbital plane
View from above satellite
View from above satellite

Ground track
Ground track

The orbit data is extracted from the following two-line orbital elements,

1 14064U 83044A   14243.81579509  .00003232  00000-0  33253-3 0  6077
2 14064 065.0045 194.3897 0093431 088.1063 288.9175 14.88885099571119
Epoch (UTC): 31 August 2014 19:34:44
Eccentricity: 0.0093431
inclination: 65.0045°
perigee height: 536 km
apogee height: 666 km
right ascension of ascending node: 194.3897°
argument of perigee: 88.1063°
revolutions per day: 14.88885099
mean anomaly at epoch: 288.9175°
orbit number at epoch: 57111

The dashed part of the orbit path shows where the satellite is in the earth's shadow,  

DLR